Asheville, NC

4:01 AM EDT on July 24, 2017 (GMT -0400)
Asheville Regional

Weather History for KAVL - May, 2014

Change the Weather History Date:

Monday, May 19, 2014

  Actual Average Record
Temperature  
Mean Temperature 56 °F 64 °F  
Max Temperature 68 °F 75 °F 93 °F (1996)
Min Temperature 43 °F 52 °F 33 °F (1894)
Degree Days  
Heating Degree Days 9 3  
Month to date heating degree days 77 84  
Since 1 July heating degree days 4288 4156  
Cooling Degree Days 0 2  
Month to date cooling degree days 26 22  
Year to date cooling degree days 28 30  
Growing Degree Days 6 (Base 50)    
Moisture  
Dew Point 45 °F    
Average Humidity 74    
Maximum Humidity 100    
Minimum Humidity 48    
Precipitation  
Precipitation 0.00 in 0.13 in 0.95 in (2012)
Month to date precipitation 2.63 2.19  
Year to date precipitation 15.37 16.78  
Snow  
Snow 0.00 in 0.00 in 0.00 in ()
Month to date snowfall 0.0 0.0  
Since 1 July snowfall 9.8 9.9  
Snow Depth 0.00 in    
Sea Level Pressure  
Sea Level Pressure 30.26 in    
Wind  
Wind Speed 5 mph (NW)    
Max Wind Speed 13 mph    
Max Gust Speed 18 mph    
Visibility 4 miles    
Events Fog    
T = Trace of Precipitation, MM = Missing Value Source: NWS Daily Summary

Daily Weather History Graph

Daily Weather History Graph

Search for Another Location

Airport or City:

Trip Planner

Search our weather history database for the weather conditions in past years. The results will help you decide how hot, cold, wet, or windy it might be!

Date:

Astronomy

May. 19, 2014 Rise Set
Actual Time 6:22 AM EDT 8:30 PM EDT
Civil Twilight 5:54 AM EDT 8:59 PM EDT
Nautical Twilight 5:19 AM EDT 9:34 PM EDT
Astronomical Twilight 4:41 AM EDT 10:12 PM EDT
Moon 12:20 AM EDT (5/19) 11:15 AM EDT (5/19)
Length of Visible Light 15h 05m
Length of Day
14h 08m
Waning Gibbous, 71% of the Moon is Illuminated
May 19
Waning Gibbous
May 21
Last Quarter
May 28
New
Jun 5
First Quarter
Jun 13
Full

Hourly Weather History & Observations

Time (EDT) Temp. Windchill Dew Point Humidity Pressure Visibility Wind Dir Wind Speed Gust Speed Precip Events Conditions
12:07 AM 46.9 °F - 44.1 °F 90% 30.25 in 10.0 mi Calm Calm - N/A   Partly Cloudy
12:30 AM 45.0 °F 43.5 °F 44.1 °F 97% 30.25 in 1.8 mi SW 3.5 mph - N/A   Partly Cloudy
12:33 AM 45.0 °F - 44.1 °F 97% 30.25 in 1.0 mi Calm Calm - N/A   Mist
12:37 AM 45.0 °F - 44.1 °F 97% 30.25 in 1.0 mi Calm Calm - N/A   Mist
12:46 AM 45.0 °F - 43.0 °F 93% 30.25 in 1.0 mi Calm Calm - N/A   Mist
12:54 AM 45.0 °F - 43.0 °F 93% 30.24 in 1.5 mi Calm Calm - N/A   Mostly Cloudy
1:07 AM 44.1 °F 42.5 °F 43.0 °F 96% 30.25 in 1.2 mi South 3.5 mph - N/A   Mostly Cloudy
1:11 AM 44.1 °F - 43.0 °F 96% 30.25 in 0.8 mi Calm Calm - N/A   Mostly Cloudy
1:28 AM 45.0 °F - 43.0 °F 93% 30.25 in 1.5 mi Calm Calm - N/A   Mostly Cloudy
1:30 AM 45.0 °F - 43.0 °F 93% 30.25 in 3.0 mi Calm Calm - N/A   Mostly Cloudy
1:44 AM 44.1 °F - 43.0 °F 96% 30.25 in 10.0 mi Calm Calm - N/A   Overcast
1:54 AM 44.1 °F - 43.0 °F 96% 30.23 in 7.0 mi Calm Calm - N/A   Overcast
1:58 AM 44.1 °F - 43.0 °F 96% 30.24 in 1.8 mi Calm Calm - N/A   Overcast
2:02 AM 45.0 °F - 43.0 °F 93% 30.24 in 0.8 mi Calm Calm - N/A   Mist
2:12 AM 43.0 °F 40.3 °F 42.1 °F 97% 30.24 in 1.5 mi NNW 4.6 mph - N/A   Overcast
2:18 AM 44.1 °F 41.5 °F 42.1 °F 93% 30.25 in 0.8 mi North 4.6 mph - N/A   Mist
2:25 AM 45.0 °F 43.5 °F 44.1 °F 97% 30.24 in 0.2 mi North 3.5 mph - N/A Fog Fog
2:33 AM 45.0 °F - 45.0 °F 100% 30.24 in 0.5 mi Calm Calm - N/A Fog Fog
2:54 AM 46.9 °F - 45.0 °F 93% 30.22 in 0.2 mi NNW 3.5 mph - N/A Fog Fog
3:50 AM 46.4 °F 45.2 °F 46.4 °F 100% 30.25 in 0.5 mi WNW 3.5 mph - N/A Fog Fog
3:54 AM 46.9 °F - 46.0 °F 97% 30.23 in 0.5 mi Calm Calm - N/A Fog Fog
4:19 AM 46.0 °F 43.9 °F 45.0 °F 96% 30.25 in 1.0 mi WNW 4.6 mph - N/A   Mist
4:25 AM 46.0 °F 44.8 °F 45.0 °F 96% 30.25 in 2.0 mi NNW 3.5 mph - N/A   Overcast
4:34 AM 46.0 °F 43.1 °F 44.1 °F 93% 30.26 in 7.0 mi NNW 5.8 mph - N/A   Overcast
4:54 AM 45.0 °F 41.8 °F 44.1 °F 97% 30.25 in 2.5 mi NNW 5.8 mph - N/A   Overcast
4:58 AM 45.0 °F 41.2 °F 44.1 °F 97% 30.26 in 1.2 mi NNW 6.9 mph - N/A   Overcast
5:13 AM 45.0 °F 43.5 °F 44.1 °F 97% 30.27 in 0.5 mi North 3.5 mph - N/A Fog Fog
5:24 AM 45.0 °F 41.8 °F 44.1 °F 97% 30.27 in 0.5 mi North 5.8 mph - N/A Fog Fog
5:35 AM 45.0 °F 42.6 °F 44.1 °F 97% 30.27 in 0.8 mi North 4.6 mph - N/A   Mist
5:54 AM 45.0 °F 42.6 °F 44.1 °F 97% 30.26 in 0.8 mi North 4.6 mph - N/A   Mist
6:23 AM 45.0 °F 41.8 °F 44.1 °F 97% 30.29 in 1.0 mi NNW 5.8 mph - N/A   Mist
6:38 AM 45.0 °F 41.8 °F 44.1 °F 97% 30.30 in 0.8 mi NNW 5.8 mph - N/A   Overcast
6:54 AM 45.0 °F 42.6 °F 44.1 °F 97% 30.28 in 1.8 mi NNW 4.6 mph - N/A   Overcast
7:01 AM 45.0 °F 43.5 °F 44.1 °F 97% 30.30 in 2.5 mi North 3.5 mph - N/A   Overcast
7:10 AM 45.0 °F 41.8 °F 44.1 °F 97% 30.31 in 0.8 mi NNW 5.8 mph - N/A   Overcast
7:54 AM 46.0 °F 43.1 °F 44.1 °F 93% 30.30 in 0.8 mi North 5.8 mph - N/A   Overcast
7:59 AM 46.0 °F 43.9 °F 45.0 °F 96% 30.32 in 3.0 mi NNW 4.6 mph - N/A   Overcast
8:35 AM 46.0 °F 44.8 °F 44.1 °F 93% 30.33 in 1.0 mi NNE 3.5 mph - N/A   Overcast
9:54 AM 51.1 °F - 46.9 °F 86% 30.31 in 5.0 mi SW 3.5 mph - N/A   Mostly Cloudy
10:54 AM 57.0 °F - 48.0 °F 72% 30.30 in 10.0 mi SW 3.5 mph - N/A   Clear
11:54 AM 62.1 °F - 48.0 °F 60% 30.29 in 10.0 mi Variable 3.5 mph - N/A   Clear
12:54 PM 64.0 °F - 46.0 °F 52% 30.27 in 10.0 mi South 9.2 mph - N/A   Clear
1:54 PM 64.9 °F - 45.0 °F 48% 30.26 in 10.0 mi Variable 4.6 mph - N/A   Scattered Clouds
2:54 PM 66.9 °F - 46.0 °F 47% 30.23 in 10.0 mi Variable 5.8 mph - N/A   Clear
3:54 PM 66.9 °F - 46.0 °F 47% 30.21 in 10.0 mi SSE 8.1 mph - N/A   Scattered Clouds
4:54 PM 66.0 °F - 46.9 °F 50% 30.21 in 10.0 mi SSE 9.2 mph - N/A   Partly Cloudy
5:54 PM 66.9 °F - 48.0 °F 51% 30.21 in 10.0 mi South 10.4 mph - N/A   Clear
6:54 PM 64.9 °F - 48.0 °F 54% 30.22 in 10.0 mi South 8.1 mph - N/A   Overcast
7:54 PM 63.0 °F - 48.0 °F 58% 30.23 in 10.0 mi South 8.1 mph - N/A   Overcast
7:56 PM 63.0 °F - 48.0 °F 58% 30.26 in 10.0 mi South 8.1 mph - N/A   Mostly Cloudy
8:54 PM 60.1 °F - 48.0 °F 64% 30.24 in 10.0 mi South 4.6 mph - N/A   Mostly Cloudy
9:54 PM 57.9 °F - 48.0 °F 70% 30.23 in 10.0 mi Calm Calm - N/A   Mostly Cloudy
10:54 PM 55.9 °F - 48.0 °F 75% 30.23 in 10.0 mi SSE 4.6 mph - N/A   Clear
11:54 PM 54.0 °F - 48.0 °F 80% 30.23 in 10.0 mi Calm Calm - N/A   Clear